User: anonymous
Location: Hickory_Viewmont
(35.7830°N, 81.3170°W)
Time: 16:14:17
(UTC-04:00)
Language:

Okean-O - Orbit

View from above orbital plane
View from above orbital plane
View from above satellite
View from above satellite

Ground track
Ground track

The orbit data is extracted from the following two-line orbital elements,

1 25860U 99039A   14242.44915369  .00000414  00000-0  68614-4 0  3391
2 25860 098.0510 205.9090 0001743 122.9977 347.8434 14.75360030813108
Epoch (UTC): 30 August 2014 10:46:46
Eccentricity: 0.0001743
inclination: 98.0510°
perigee height: 643 km
apogee height: 645 km
right ascension of ascending node: 205.9090°
argument of perigee: 122.9977°
revolutions per day: 14.75360030
mean anomaly at epoch: 347.8434°
orbit number at epoch: 81310

The dashed part of the orbit path shows where the satellite is in the earth's shadow,  

DLR